Location: Newark
(13.6797°N, 8.5297°E)
Time: 15:18:22
(UTC+00:00)

Courier 1B Rocket - Pass Details

Date: 25 January 2020
Orbit: 920 x 1202 km, 28.2° (Epoch: 25 February)

Event Time Altitude Azimuth Distance (km) Brightness Sun altitude
Rises 14:37:11 0° 303° (WNW) 3,735 8.3 35.1°
Reaches altitude 10° 14:40:20 10° 315° (NW) 2,738 7.6 34.5°
Maximum altitude 14:45:55 29° 13° (NNE) 1,678 6.1 33.4°
Drops below altitude 10° 14:51:17 10° 71° (ENE) 2,622 6.9 32.3°
Sets 14:54:13 0° 83° (E) 3,550 7.5 31.7°
